GFSNIL_850_spd_021.txt.gz
Wind_Speed
21 18 16 15 15 14 11 11 13 14 14 15 12 13 17 19 19 14 15 14 15 16
21 17 14 13 11 10 10 11 11 13 14 14 14 14 14 18 16 15 14 16 16 18
14 12 12 10 9 10 10 11 13 14 15 16 14 10 12 15 14 15 17 17 18 16
12 12 10 9 10 11 13 13 16 15 16 15 11 12 13 16 21 19 16 14 10 11
12 12 11 10 12 13 15 18 20 18 18 11 15 18 20 22 16 12 13 14 12 16
15 13 12 13 11 14 16 20 21 21 19 11 15 20 20 17 14 9 12 10 12 17
14 14 17 14 13 15 19 20 20 22 16 13 19 20 19 18 17 14 16 19 17 16
13 20 17 16 17 19 19 20 23 20 15 17 19 20 22 16 17 21 21 17 17 20
18 19 16 16 11 19 18 19 18 19 20 21 20 20 21 19 17 17 16 17 19 20
19 17 16 13 13 19 19 17 20 20 22 21 21 21 20 21 18 17 18 20 19 20
16 14 10 6 11 18 18 22 20 22 24 22 21 21 19 18 18 19 20 20 19 21
12 8 3 8 16 18 21 20 21 22 21 22 19 19 19 18 19 20 20 20 22 18
5 5 7 11 16 23 24 23 24 19 19 20 22 22 22 23 22 20 19 21 19 17
5 5 9 18 22 22 22 20 15 17 20 23 24 24 21 19 18 16 18 19 16 18

GFSNIL_850_spd_024.txt.gz
Wind_Speed
25 23 22 21 19 17 14 13 12 15 14 15 15 14 15 16 15 18 15 16 17 17
24 23 21 19 17 13 11 12 14 12 14 16 16 16 14 15 15 17 18 20 18 17
22 21 18 16 14 13 13 11 13 14 17 16 17 15 13 14 16 17 21 19 17 15
24 22 18 18 16 12 11 16 15 16 18 18 19 17 15 16 18 21 20 21 16 11
24 23 20 18 15 12 13 13 15 19 20 20 20 16 16 21 23 21 18 17 14 15
25 23 20 17 14 14 13 13 16 18 19 21 19 14 17 22 22 19 18 17 16 17
25 21 17 15 16 15 13 12 12 16 22 22 17 14 18 22 20 19 21 19 22 23
23 17 14 18 19 16 11 12 12 19 19 20 19 20 20 21 21 18 20 22 22 21
20 18 22 23 19 10 8 6 15 18 23 21 22 20 20 20 20 19 19 21 21 20
23 25 28 24 18 9 9 16 17 23 23 19 21 22 20 20 19 21 20 22 21 21
28 30 26 21 11 8 11 14 23 24 19 22 23 22 20 19 21 21 23 22 21 22
22 18 6 4 12 13 9 20 22 22 24 24 25 21 19 21 22 23 23 21 19 21
12 4 7 18 16 10 18 20 22 23 22 18 18 18 19 21 21 21 22 20 19 20
13 17 23 6 13 17 19 20 21 22 20 20 20 20 21 22 22 22 21 20 19 20

GFSNIL_850_spd_027.txt.gz
Wind_Speed
28 29 31 30 28 24 21 16 14 17 24 14 14 15 14 14 13 13 14 15 16 17
26 29 33 31 28 25 21 15 19 18 13 11 13 15 14 11 10 12 15 17 19 20
30 31 31 30 29 26 22 22 16 14 10 11 12 15 15 14 12 13 16 20 18 18
30 30 30 28 26 23 19 12 9 11 10 10 14 17 16 13 13 16 17 20 18 16
28 28 29 29 26 22 17 14 11 9 10 12 15 18 15 13 14 17 18 17 18 18
29 28 28 27 24 22 19 15 13 9 8 11 17 16 16 15 16 17 20 17 19 19
30 29 29 26 24 22 19 16 13 8 7 16 15 17 16 17 18 19 20 18 19 20
31 31 29 25 22 19 19 16 11 5 13 16 18 18 19 20 19 19 21 19 20 22
34 30 26 22 22 21 18 13 5 11 21 21 22 20 19 19 19 19 21 19 21 21
32 27 25 25 25 22 16 11 9 24 17 22 23 21 20 20 18 20 21 21 21 23
30 27 26 26 20 10 8 15 24 16 20 23 24 23 21 20 19 20 21 22 23 23
26 26 22 16 10 13 17 29 16 19 23 25 25 22 19 17 17 19 21 21 22 23
22 19 11 9 14 26 28 13 19 23 23 24 24 21 19 17 19 21 21 22 24 23
14 17 24 25 25 13 12 20 23 23 23 22 22 22 21 20 22 23 22 23 25 23

GFSNIL_850_spd_030.txt.gz
Wind_Speed
34 28 27 27 26 27 27 27 25 23 19 20 30 19 15 16 14 14 12 11 12 13
31 25 26 29 30 31 29 27 26 20 19 27 18 13 12 12 13 12 11 11 13 15
25 26 27 28 31 33 31 29 23 19 18 12 10 8 8 12 13 10 9 10 12 12
25 28 28 29 31 31 30 27 21 17 10 9 7 6 17 15 11 11 10 11 12 13
26 28 28 26 29 30 28 24 19 13 11 8 6 10 15 11 11 11 12 14 15 14
28 29 27 27 29 30 27 22 19 16 12 9 6 16 15 15 14 14 14 15 17 16
29 28 25 26 29 28 24 20 19 15 12 9 8 17 17 18 19 18 18 18 20 19
31 28 29 29 27 25 21 20 18 15 13 10 15 20 20 21 22 22 21 21 22 20
33 32 30 28 26 25 24 24 22 18 17 12 27 17 21 21 22 22 22 23 23 20
35 31 29 27 27 26 25 23 22 21 13 28 25 17 22 22 23 23 23 23 24 22
27 24 24 22 19 20 20 18 12 16 25 27 16 24 25 25 25 25 25 23 23 24
18 18 19 20 19 14 9 16 21 28 24 16 24 24 24 23 22 22 21 20 22 24
16 19 17 18 18 20 26 26 29 15 18 24 25 24 24 23 23 24 21 22 23 25
10 13 16 20 23 23 17 14 17 22 23 24 24 25 24 22 23 25 25 26 27 26

GFSNIL_850_spd_033.txt.gz
Wind_Speed
36 36 34 33 28 29 29 29 29 25 22 19 13 16 7 15 10 11 14 14 12 12
33 34 29 30 30 29 31 30 29 26 22 19 15 12 16 9 8 18 17 13 12 11
27 24 27 31 29 30 30 32 31 27 23 18 14 11 11 8 19 15 13 12 11 10
20 22 27 28 30 30 32 34 31 27 23 17 17 18 10 11 15 13 12 12 11 10
21 24 25 24 25 27 27 33 30 25 20 17 14 11 6 7 11 13 12 12 14 14
21 25 27 24 24 22 26 29 30 25 23 20 18 14 8 16 10 14 13 14 15 15
24 27 25 20 21 24 27 29 27 27 21 17 17 12 12 24 13 19 20 19 20 20
20 19 19 22 23 24 25 26 24 23 23 21 18 12 20 21 19 22 25 25 25 24
18 19 21 22 22 21 21 23 24 22 21 17 12 30 30 25 20 24 25 25 25 26
18 19 20 21 22 21 23 25 23 21 20 26 34 30 29 19 23 26 28 28 27 27
13 13 14 16 17 19 22 24 23 30 29 32 28 29 26 20 27 29 29 29 28 29
5 6 9 10 13 17 18 21 20 23 25 27 27 17 22 25 28 28 29 27 26 26
3 2 5 7 10 14 15 18 23 24 20 18 22 23 24 24 26 28 29 28 28 27
4 2 4 9 13 15 17 12 14 18 20 23 24 25 25 25 27 29 29 29 29 30

GFSNIL_850_spd_036.txt.gz
Wind_Speed
33 33 35 30 33 34 33 29 28 32 32 30 25 22 19 15 14 12 13 11 11 9
32 27 27 31 31 33 31 32 31 32 33 29 26 23 20 16 11 11 12 10 10 10
22 21 22 27 30 31 33 33 33 30 31 32 27 24 18 14 11 10 10 10 11 11
23 20 22 26 25 25 29 31 30 31 32 32 29 22 20 11 10 7 10 13 13 13
19 19 23 23 23 27 29 29 30 31 33 32 24 22 16 14 11 10 13 14 16 16
19 24 26 26 27 27 26 24 26 27 31 32 25 20 17 15 10 17 17 16 18 19
22 24 24 23 22 22 22 21 23 28 25 20 16 19 20 18 20 24 16 20 23 24
11 12 12 13 15 17 17 20 21 21 23 24 27 25 21 25 29 27 25 22 24 26
6 8 10 11 12 13 14 15 20 25 25 26 25 29 30 33 30 29 22 22 23 24
4 5 6 8 10 12 14 17 23 24 26 25 29 34 35 32 32 31 22 23 24 25
2 1 3 5 7 9 11 14 16 19 19 18 29 30 28 28 24 23 25 24 25 26
7 6 5 4 2 1 2 4 8 13 13 17 23 24 16 20 24 25 26 23 25 25
12 11 9 6 4 1 5 10 11 15 18 17 16 18 21 22 24 26 26 26 25 27
8 5 2 2 5 6 8 7 7 12 14 16 17 19 21 21 24 25 28 29 30 29

GFSNIL_850_spd_039.txt.gz
Wind_Speed
22 33 33 39 40 38 27 31 29 28 26 28 27 24 28 22 23 20 16 13 14 13
17 32 36 39 36 30 35 30 26 27 27 27 29 31 27 27 23 19 17 13 12 11
30 28 32 31 28 32 30 28 28 29 30 30 31 31 29 24 22 16 9 11 10 12
30 25 21 22 27 30 22 22 27 30 31 32 31 29 27 25 15 11 12 11 13 15
24 22 23 21 25 27 24 22 22 28 29 29 24 22 28 21 13 17 15 11 24 16
21 20 20 24 26 27 23 23 24 27 23 24 27 26 22 20 23 18 15 27 18 18
24 24 24 26 25 23 20 20 22 21 22 28 24 23 20 23 27 21 26 25 19 22
14 16 14 13 15 13 13 13 16 20 25 22 21 24 28 28 23 24 29 27 27 23
9 8 8 8 12 12 12 13 15 18 21 21 23 22 27 27 19 28 34 33 29 24
10 8 8 8 8 9 9 9 9 11 13 13 16 24 24 20 28 33 34 32 26 21
8 7 6 6 6 5 4 4 5 8 11 14 12 13 18 23 27 27 21 21 23 26
9 9 9 9 8 7 7 5 4 4 9 8 11 14 18 17 17 21 23 22 23 25
13 12 12 10 10 11 10 8 5 5 7 8 9 10 15 18 19 22 22 23 24 26
12 11 10 8 6 4 2 3 2 3 3 4 6 7 16 21 22 24 29 32 33 32

GFSNIL_850_spd_042.txt.gz
Wind_Speed
27 35 39 32 30 32 30 36 34 31 29 32 31 25 25 27 29 21 23 22 19 17
30 31 39 35 33 31 29 33 33 34 28 27 29 24 29 31 28 26 23 21 19 18
35 34 32 31 31 31 30 33 31 30 30 29 29 28 30 31 29 26 23 16 10 13
39 38 34 26 26 27 29 27 23 28 28 26 28 30 32 33 29 26 18 18 22 21
39 38 34 27 23 24 25 24 27 23 21 23 27 31 33 29 26 20 21 23 21 21
27 36 33 26 23 24 25 26 25 19 21 22 25 27 28 26 24 26 26 23 24 19
24 26 29 26 23 23 24 24 21 21 23 26 26 25 25 27 25 27 25 27 19 20
26 30 27 25 22 20 20 19 20 21 22 21 22 24 24 22 20 23 24 22 21 26
21 17 14 15 17 17 17 15 14 15 17 19 20 19 13 18 22 20 16 25 27 30
13 14 16 16 16 14 13 12 11 12 12 12 13 10 11 15 15 19 22 27 31 27
17 15 14 13 13 13 13 12 10 10 9 9 8 9 9 11 13 18 22 21 19 22
14 13 13 12 12 11 10 10 9 7 6 6 8 8 9 14 18 17 18 21 20 22
14 12 13 13 12 12 12 12 11 9 8 7 2 3 10 13 16 19 22 24 26 28
16 15 12 11 12 12 10 7 7 7 5 4 8 9 12 15 19 23 24 27 30 32

GFSNIL_850_spd_045.txt.gz
Wind_Speed
37 40 42 38 36 32 30 29 29 30 27 26 22 27 32 32 33 33 31 31 28 26
40 42 41 37 38 33 33 32 30 30 32 27 24 25 28 32 31 31 31 27 28 26
43 46 43 38 37 37 33 33 33 30 29 27 21 23 27 31 28 30 30 26 23 22
49 46 43 38 31 34 31 31 31 27 24 23 25 27 29 29 29 31 29 25 26 23
48 46 38 35 34 32 26 23 23 22 23 23 25 28 27 28 30 31 31 27 25 22
40 31 34 38 37 33 26 23 23 23 23 24 20 20 23 26 29 31 30 24 23 22
25 27 22 26 28 28 23 25 23 24 23 22 19 20 22 26 27 24 22 20 23 25
23 24 19 19 23 22 24 22 22 22 21 21 21 22 24 23 19 18 16 18 22 26
26 23 22 22 23 24 23 23 21 21 20 21 21 19 15 15 14 13 16 20 18 18
26 26 27 25 22 23 22 19 19 18 17 14 12 13 13 10 12 15 16 10 14 19
26 24 24 24 20 19 18 18 17 16 15 15 15 14 13 13 13 11 10 13 15 19
22 22 21 20 20 19 18 17 16 15 16 16 15 12 13 12 12 14 15 16 17 20
22 21 21 19 18 18 17 17 17 17 13 14 14 14 15 14 13 13 15 17 18 20
19 19 16 17 17 17 17 17 16 16 16 14 11 12 13 14 15 16 17 19 19 21

GFSNIL_850_spd_048.txt.gz
Wind_Speed
41 43 44 41 41 40 37 36 28 27 24 27 28 26 28 30 32 33 33 31 30 26
44 46 48 45 42 42 39 35 31 30 28 27 28 27 26 27 31 32 31 31 30 26
44 46 48 49 46 45 41 40 37 30 31 28 26 26 27 25 24 28 30 29 26 29
45 46 50 52 49 44 38 42 37 34 31 30 26 27 26 25 25 28 31 30 30 29
43 49 51 49 40 42 35 34 36 31 30 28 27 27 26 26 29 31 31 31 31 32
48 44 49 53 34 32 44 37 36 33 27 26 26 25 24 28 29 30 30 28 29 26
44 54 47 47 39 39 41 40 34 30 24 25 24 24 23 24 27 28 25 25 25 22
44 42 44 42 43 44 42 39 28 24 26 25 25 24 25 25 23 22 22 21 20 22
46 42 37 36 34 27 33 31 27 26 24 25 25 23 20 18 19 19 18 19 17 19
42 37 32 29 28 30 31 29 26 26 25 23 20 19 19 18 18 17 17 16 17 17
35 34 32 31 30 26 25 24 22 22 19 19 19 18 17 17 17 16 17 17 16 16
30 30 30 28 24 22 20 19 18 18 19 18 18 17 18 17 16 16 16 15 16 18
28 26 24 23 22 22 19 20 20 19 18 18 19 19 18 18 18 18 17 17 17 19
23 22 21 22 21 20 21 21 21 22 21 20 19 20 20 20 19 17 16 17 18 18

GFSNIL_850_spd_051.txt.gz
Wind_Speed
40 41 41 40 41 43 45 43 40 37 36 37 35 29 27 29 31 24 26 29 32 34
43 44 45 44 44 43 42 42 42 41 36 37 31 33 32 32 27 25 29 31 32 33
47 47 47 46 45 43 41 42 42 41 41 39 32 33 31 30 26 30 29 30 33 33
50 49 49 49 46 45 43 43 45 41 41 43 38 37 32 28 28 30 28 28 30 33
53 51 51 51 50 42 45 40 46 40 45 44 45 38 34 29 29 30 29 30 32 34
54 53 52 51 49 48 44 42 40 45 41 37 40 35 29 29 31 29 30 32 35 33
55 53 53 48 49 42 42 45 47 41 42 36 32 30 29 30 29 29 30 32 30 25
50 51 53 51 48 41 39 38 44 40 40 36 32 32 29 28 28 29 29 25 23 22
46 46 46 47 43 39 41 40 43 42 41 40 34 32 28 29 30 30 24 23 24 24
43 43 45 44 46 43 39 37 36 32 35 33 29 29 29 30 26 22 22 24 24 24
36 40 41 38 40 38 34 29 29 31 32 30 30 30 26 24 21 22 23 23 23 22
33 36 36 35 35 32 29 30 27 26 26 27 24 22 22 23 25 24 23 21 20 18
30 30 30 31 30 31 30 28 25 24 22 20 21 23 22 21 21 21 20 19 20 20
19 20 23 27 30 28 26 24 23 23 23 22 21 22 20 19 18 18 19 18 17 18

GFSNIL_850_spd_054.txt.gz
Wind_Speed
44 44 44 46 49 53 54 48 49 47 47 48 39 36 37 39 38 38 27 34 31 26
42 43 44 45 46 47 46 47 45 41 40 42 40 39 39 37 39 34 33 33 26 26
39 40 41 41 42 43 42 40 40 40 41 41 42 41 42 41 36 37 38 30 29 30
38 39 40 42 43 44 42 42 41 40 41 42 44 41 40 37 38 37 36 30 31 29
42 40 43 44 44 45 46 44 42 40 43 42 43 42 39 39 42 40 37 31 31 30
45 46 50 48 47 49 49 47 45 46 45 44 38 48 45 43 41 37 33 33 34 30
52 52 51 48 51 53 53 51 49 50 48 47 45 37 43 39 33 30 33 37 33 31
51 54 55 54 53 52 52 51 50 46 48 49 48 46 39 37 28 34 38 31 32 33
42 46 48 48 49 50 54 52 46 49 46 46 43 41 34 32 30 34 33 32 33 28
35 40 40 38 40 42 42 44 46 44 41 39 35 32 33 32 34 32 30 30 27 25
33 35 35 34 35 36 37 38 39 35 33 35 31 31 34 29 27 26 25 22 22 23
31 31 31 32 33 32 33 33 32 28 26 23 24 25 27 29 27 22 21 21 23 23
27 27 26 24 27 27 26 25 24 22 24 24 24 24 22 20 19 20 22 23 24 23
21 18 18 18 19 20 21 24 26 25 23 20 19 19 18 17 18 19 22 21 21 19

GFSNIL_850_spd_057.txt.gz
Wind_Speed
39 44 44 50 54 53 53 50 46 49 48 47 51 45 43 40 37 32 33 33 33 33
42 44 45 45 46 55 56 53 52 50 50 47 49 49 49 49 45 39 38 35 32 30
38 41 44 45 48 50 54 59 56 54 53 54 52 52 50 44 44 42 42 40 41 42
36 38 41 44 47 49 51 55 56 56 55 53 50 44 41 42 44 45 45 45 41 39
38 39 40 40 39 42 44 46 47 46 46 44 43 40 43 47 48 44 42 34 40 40
40 43 43 40 33 45 39 40 44 43 43 44 43 45 50 48 44 43 40 40 32 31
42 43 44 44 47 42 40 43 47 46 48 48 46 50 49 47 42 43 46 38 35 44
46 47 47 48 48 46 45 47 51 47 47 48 51 51 49 48 47 51 41 34 41 42
41 47 49 49 48 48 48 49 51 49 47 47 47 47 44 45 42 44 46 42 40 38
34 35 37 38 40 40 39 41 45 47 48 49 48 46 43 43 39 40 34 34 38 36
34 32 31 31 32 30 30 34 35 35 35 35 37 37 36 33 33 33 36 35 35 32
33 29 27 27 26 26 26 26 29 30 33 35 36 32 30 30 32 36 32 30 28 26
27 25 24 22 20 18 19 25 27 29 29 30 30 29 27 26 28 29 28 26 25 23
19 18 14 11 13 16 21 23 25 26 27 26 23 24 22 22 24 24 24 24 25 24

GFSNIL_850_spd_060.txt.gz
Wind_Speed
37 37 44 52 54 52 47 48 48 47 49 51 51 44 41 40 35 31 31 32 30 26
37 34 38 47 56 49 46 50 52 49 49 49 48 44 40 46 43 36 36 36 37 33
37 35 34 38 49 49 48 51 52 53 53 53 51 53 49 50 44 42 40 38 36 35
35 35 35 37 42 44 48 45 48 42 46 45 44 41 41 43 41 40 42 41 38 41
34 35 38 40 40 44 44 53 54 50 50 50 48 49 46 46 46 44 43 39 37 40
37 39 41 43 45 41 43 45 44 45 55 59 61 62 60 58 55 53 48 45 45 48
40 42 42 41 41 43 43 40 41 43 49 55 53 56 57 56 55 51 51 50 49 50
44 42 40 40 40 40 42 44 42 45 46 50 52 45 45 43 47 51 51 53 53 53
37 41 43 40 40 40 42 41 40 42 42 42 44 48 49 49 50 52 51 50 45 43
33 35 36 36 35 37 38 37 39 41 40 42 40 42 48 48 49 46 46 45 42 44
31 32 30 30 32 31 30 30 30 31 33 37 39 38 40 38 37 36 40 42 43 48
29 29 29 30 29 27 26 25 27 26 26 29 29 30 31 30 39 41 40 40 41 38
25 27 27 26 25 24 23 23 23 21 24 27 29 30 32 33 32 33 36 36 36 34
19 20 21 24 27 24 21 21 23 23 26 28 28 29 30 30 29 29 32 32 30 23

GFSNIL_850_spd_063.txt.gz
Wind_Speed
35 36 37 44 49 53 56 57 53 49 47 41 43 43 37 35 32 30 33 36 35 30
36 33 35 35 44 50 54 50 45 50 51 46 47 49 44 45 41 44 45 43 39 38
39 35 38 40 39 44 53 44 42 45 54 49 47 53 50 50 50 48 48 43 48 45
38 36 39 37 34 36 43 53 49 50 51 51 51 54 55 52 45 44 43 45 44 45
30 34 39 40 38 38 41 48 45 45 47 51 54 55 55 56 50 47 47 48 45 44
35 35 37 39 40 39 41 41 45 41 46 44 46 47 47 51 53 50 49 48 47 47
38 40 43 42 40 41 41 43 43 48 49 45 47 47 46 47 49 50 50 50 50 50
39 38 36 38 39 42 43 44 44 46 45 49 51 50 50 50 51 51 51 51 51 51
37 37 40 39 42 42 44 45 45 47 48 50 52 53 54 53 49 49 47 47 50 52
39 40 42 42 38 42 44 42 45 47 46 49 49 49 50 50 49 48 43 44 46 46
36 41 40 40 42 42 42 43 43 43 44 43 44 43 43 42 40 42 44 46 50 51
32 33 36 40 43 41 39 40 41 39 37 36 36 36 37 38 40 42 45 47 48 49
27 29 31 33 33 33 34 33 30 32 35 36 37 38 37 35 33 36 42 45 45 46
22 24 25 25 25 26 29 35 34 33 34 34 34 34 35 36 34 32 32 33 31 28

GFSNIL_850_spd_066.txt.gz
Wind_Speed
34 34 40 41 48 54 54 57 55 52 50 44 44 41 39 38 39 32 34 33 34 32
36 37 38 40 44 50 54 52 52 54 53 55 48 50 46 48 48 42 38 36 37 36
40 39 38 39 39 45 49 50 54 53 51 56 52 47 46 47 50 47 43 44 43 42
40 40 43 42 41 42 41 48 53 55 52 49 52 51 52 50 47 51 53 51 51 48
36 40 43 41 40 41 41 38 43 53 50 52 53 52 54 54 53 51 54 55 54 55
30 36 42 40 41 42 43 41 39 46 52 54 54 55 57 58 56 56 56 54 51 52
34 34 33 39 41 42 44 41 40 43 51 54 57 58 55 59 59 60 61 61 57 53
35 36 34 35 38 39 42 45 45 46 47 48 50 52 50 49 50 50 51 52 53 54
36 37 41 42 41 40 42 44 45 48 48 48 52 53 52 51 49 49 49 50 50 50
36 37 40 41 41 45 47 45 48 50 48 52 51 52 53 54 52 50 49 48 47 46
34 37 38 38 42 44 43 43 44 46 46 44 46 47 46 47 47 48 52 51 49 46
33 35 36 38 40 40 40 39 41 41 40 42 45 46 47 44 45 44 46 49 50 49
15 35 35 37 38 38 37 37 35 38 40 41 42 44 43 41 41 42 42 44 47 50
16 17 31 33 33 32 35 36 37 37 39 38 38 39 41 38 36 37 42 44 40 35

GFSNIL_850_spd_069.txt.gz
Wind_Speed
31 32 38 40 43 44 45 47 48 46 46 46 43 36 39 35 36 36 37 38 34 35
36 37 37 38 40 45 46 46 46 46 47 46 46 42 36 37 37 37 38 41 41 43
36 36 36 36 36 39 48 48 48 49 50 50 44 45 45 42 43 43 43 42 42 44
36 36 38 39 39 39 39 48 53 53 53 56 55 53 53 51 50 50 50 47 48 50
33 38 40 42 42 39 40 42 46 54 58 56 57 60 61 59 61 54 55 55 50 54
28 34 41 43 42 42 43 42 44 44 52 55 54 56 59 58 57 64 62 59 58 57
30 30 30 37 44 44 44 45 46 46 45 48 52 54 56 57 58 57 59 59 60 60
30 31 30 30 33 41 46 46 46 44 44 45 47 54 57 59 57 58 56 56 58 60
32 33 34 34 33 34 40 44 45 47 48 48 48 51 55 57 55 54 56 60 59 57
37 35 37 38 38 38 38 40 44 46 49 51 50 49 50 50 53 55 55 55 53 52
20 30 35 43 42 43 43 43 43 44 45 47 49 49 49 49 50 52 53 53 53 54
17 15 23 29 44 44 45 47 47 47 48 49 50 53 53 50 49 50 53 58 60 60
26 23 21 20 35 41 48 46 44 46 42 45 46 50 50 50 50 48 48 49 50 52
27 27 20 20 19 28 32 40 40 40 42 41 43 45 47 47 45 46 46 47 48 47

GFSNIL_850_spd_072.txt.gz
Wind_Speed
27 26 24 26 30 36 44 46 48 42 39 36 35 32 36 35 34 39 39 38 39 37
31 30 28 30 33 37 42 48 52 49 48 45 43 41 36 36 37 38 37 40 38 39
33 32 30 32 38 39 40 45 49 50 48 51 46 44 44 42 39 42 40 41 43 42
31 36 34 33 37 39 40 42 44 45 45 47 50 49 49 48 47 46 46 46 47 46
25 33 38 39 36 37 38 38 40 44 49 50 51 51 51 52 52 53 51 50 51 53
23 24 33 37 37 37 37 38 39 40 46 52 52 52 55 55 55 54 55 56 58 59
24 24 25 26 32 40 41 40 42 43 44 46 49 55 57 59 60 60 61 62 64 63
29 29 29 30 30 30 33 40 42 44 45 47 47 51 51 55 60 61 61 60 61 62
24 30 34 34 32 33 35 36 37 41 46 49 52 51 50 51 50 53 55 57 58 58
18 18 25 30 35 40 41 39 40 40 40 44 49 49 46 45 48 50 52 53 52 53
6 12 16 22 28 35 38 43 45 45 43 43 42 42 42 42 44 46 48 51 52 53
14 11 13 13 19 27 33 38 44 46 48 46 43 46 45 45 44 46 48 48 52 56
18 17 16 16 17 19 24 33 35 34 42 44 45 49 50 50 48 50 51 56 57 57
17 16 16 14 16 18 18 18 29 34 34 33 34 40 46 47 48 49 44 44 45 45

GFSNIL_850_spd_075.txt.gz
Wind_Speed
21 20 18 19 26 27 32 34 32 39 37 36 38 42 41 39 42 34 38 35 33 41
22 22 21 18 20 27 31 33 32 37 37 37 39 41 42 42 37 34 41 40 41 34
22 24 22 20 20 21 24 26 30 42 40 37 34 36 38 39 35 36 34 34 38 43
22 24 24 23 22 23 23 25 29 34 41 42 39 37 34 35 35 37 39 40 42 45
18 20 25 25 24 24 27 29 30 32 36 43 45 44 44 44 45 47 47 48 46 47
15 17 19 24 26 26 26 30 33 36 37 40 43 47 49 47 52 54 53 54 55 53
15 17 18 18 19 21 25 30 31 34 36 38 40 43 45 49 51 54 56 56 57 56
15 18 21 23 24 24 26 28 28 33 37 39 41 43 44 45 49 54 57 58 59 60
17 18 19 20 22 26 30 31 32 35 36 37 40 43 45 45 47 49 51 55 57 58
9 10 14 20 23 25 28 29 34 37 38 39 40 41 42 43 47 50 51 53 53 54
2 4 7 11 15 21 25 29 32 35 35 36 38 45 45 45 43 43 47 50 51 54
5 5 4 5 10 12 14 19 27 31 32 38 38 45 46 47 45 46 46 45 51 52
10 9 8 8 9 9 9 11 12 19 26 32 36 41 47 49 46 45 43 47 52 55
12 12 11 10 9 10 9 9 6 6 9 12 14 17 22 28 34 35 33 32 28 24

GFSNIL_850_spd_081.txt.gz
Wind_Speed
16 14 16 16 16 16 17 19 19 17 33 36 37 37 35 34 34 39 43 41 38 39
17 17 15 14 14 13 15 18 16 20 22 41 41 39 43 47 44 38 40 41 41 38
17 16 14 11 8 9 10 11 13 14 23 32 38 42 42 45 47 48 43 46 43 40
15 16 14 12 9 7 8 12 14 14 15 17 21 26 39 44 42 47 46 49 50 47
10 14 14 13 13 12 10 10 15 16 16 17 17 24 25 31 35 39 46 49 48 50
9 9 11 10 11 11 11 11 11 14 15 16 18 22 26 28 29 30 30 37 40 43
7 6 8 9 9 8 8 9 10 11 12 14 15 18 21 24 27 30 31 33 35 35
10 9 9 8 8 8 7 6 7 9 11 12 14 17 21 24 26 29 31 34 35 37
9 10 11 12 12 12 13 13 12 12 14 13 18 22 23 25 27 28 30 33 34 36
7 7 10 11 12 14 15 15 15 17 18 19 22 25 26 27 28 29 31 33 35 36
7 5 6 7 8 9 9 11 12 14 16 17 22 28 28 28 27 28 33 37 37 35
8 7 6 6 4 3 3 3 3 3 6 9 12 18 23 24 23 26 29 32 33 35
11 10 10 10 9 9 8 8 7 6 5 4 5 6 6 6 7 10 12 13 15 18
15 14 14 13 12 12 12 11 11 11 12 13 13 12 8 5 3 1 0 2 5 9

GFSNIL_850_spd_087.txt.gz
Wind_Speed
17 14 14 17 18 17 14 10 9 7 5 21 30 26 37 43 36 41 37 32 32 32
18 16 16 16 15 14 13 12 10 11 8 12 24 28 34 40 40 37 34 30 27 26
18 16 15 16 16 14 11 11 12 12 14 14 16 22 26 30 29 29 25 25 29 28
20 16 16 17 16 15 14 14 14 15 15 16 17 22 24 25 25 27 33 33 37 36
21 19 18 18 15 12 11 10 10 15 14 15 18 21 28 29 31 30 31 32 32 33
18 21 19 16 16 11 10 12 12 13 12 12 11 11 23 26 27 27 30 33 32 32
18 17 16 20 15 16 14 11 12 12 11 11 11 11 12 21 27 31 33 32 35 36
20 18 19 21 16 14 15 14 12 10 10 14 17 17 18 15 14 20 20 23 26 25
20 20 21 22 20 17 16 16 15 16 17 17 17 17 16 15 15 19 25 24 25 27
20 20 21 22 21 19 19 19 19 18 18 17 16 17 18 20 22 22 21 22 24 26
19 20 19 20 19 18 17 16 17 17 16 15 16 18 20 21 22 23 25 26 27 28
16 17 18 18 16 15 14 13 12 11 11 9 7 7 8 10 13 15 16 16 17 18
23 21 20 19 18 18 15 16 14 11 9 8 6 5 5 4 4 5 5 3 2 2
21 21 20 17 16 18 16 14 14 13 14 11 9 9 7 7 7 7 7 8 9 10

GFSNIL_850_spd_093.txt.gz
Wind_Speed
29 25 24 23 24 21 24 24 21 18 17 18 22 31 32 35 40 39 42 47 49 44
27 26 25 25 22 20 22 19 16 15 15 12 14 21 25 33 39 36 37 45 52 44
25 27 27 21 19 16 18 21 17 14 13 9 11 14 18 22 28 36 40 43 52 42
28 27 23 19 15 15 16 14 10 9 9 9 7 12 14 14 24 36 45 39 46 46
30 25 21 17 15 14 12 11 9 10 10 10 7 8 10 11 16 28 33 43 45 42
25 22 19 19 18 16 16 13 10 9 9 8 8 7 9 11 13 25 31 33 37 39
21 19 19 19 18 18 16 14 13 11 10 9 9 9 8 11 15 18 15 15 20 21
20 20 19 20 19 19 18 16 15 14 14 12 11 10 9 11 16 17 14 14 14 18
18 19 18 19 19 20 21 18 17 15 14 13 12 11 10 9 13 15 15 15 17 18
21 21 20 20 21 23 20 18 18 17 16 15 15 13 12 12 13 14 15 15 15 16
22 22 21 23 22 22 21 20 18 17 16 16 15 16 15 16 16 18 18 20 21 21
15 18 20 21 22 20 22 21 19 18 17 15 16 18 17 19 20 20 19 17 16 16
12 14 17 18 18 20 19 19 18 17 15 15 15 14 14 14 18 19 17 16 14 13
24 22 20 21 21 21 22 21 21 20 20 18 16 19 16 14 14 17 18 17 18 17

GFSNIL_850_spd_096.txt.gz
Wind_Speed
34 34 30 27 26 23 21 19 17 21 26 26 27 28 28 28 33 36 37 40 45 47
28 27 26 23 20 19 16 17 18 21 26 30 26 27 29 28 30 35 34 43 47 49
26 24 23 20 21 18 16 22 23 21 21 19 19 21 25 29 33 36 39 47 40 41
25 23 20 20 21 18 18 20 20 19 17 17 18 15 16 21 23 23 39 40 37 41
21 19 20 21 19 15 14 15 14 12 11 13 15 13 15 18 17 17 28 31 39 41
25 22 21 17 13 11 13 13 11 10 12 13 11 11 10 11 10 11 18 30 43 46
25 24 23 19 17 17 15 14 11 10 11 10 9 9 7 6 8 6 16 21 30 40
25 22 21 20 19 18 17 14 13 12 12 12 11 11 10 9 9 13 15 20 29 29
25 21 20 19 19 19 17 16 14 14 13 13 12 11 9 11 15 15 13 13 17 20
26 25 22 21 21 15 20 20 20 16 14 14 13 12 12 12 13 16 16 16 17 17
22 24 24 24 21 25 27 24 21 20 18 18 16 14 14 14 15 16 17 17 17 17
9 18 18 23 22 23 23 22 21 19 19 18 18 18 17 16 18 19 19 19 19 19
19 15 12 13 14 16 19 19 18 18 17 15 15 16 15 16 18 21 20 18 18 16
23 23 21 19 15 13 17 19 19 18 17 13 12 13 10 8 11 15 18 19 18 17

GFSNIL_850_spd_099.txt.gz
Wind_Speed
46 43 43 37 33 35 35 31 27 27 28 25 26 26 25 26 28 31 35 36 36 36
38 36 36 33 29 29 30 28 23 22 20 21 22 25 28 30 32 30 31 33 34 38
27 31 29 27 25 26 26 23 21 21 22 23 24 28 28 27 29 31 31 35 36 49
24 26 24 24 22 24 22 21 20 22 21 21 22 24 22 21 25 29 36 37 35 45
29 17 25 21 19 22 22 18 18 20 20 18 18 18 17 15 16 19 24 25 27 37
26 35 36 22 20 22 18 16 13 14 14 13 14 14 13 12 14 18 20 22 21 38
10 13 23 23 22 17 15 16 14 13 12 12 10 8 6 7 10 13 13 13 15 29
21 22 27 22 21 19 18 18 16 13 11 12 11 9 8 7 9 12 12 9 15 17
26 29 26 24 23 21 16 22 14 14 13 13 12 8 8 9 9 9 8 7 13 23
24 27 24 24 24 22 20 18 17 17 16 13 12 9 9 10 10 12 14 11 11 14
8 21 24 25 25 23 22 23 22 20 16 15 13 11 11 12 13 12 12 13 12 13
18 13 12 21 20 21 22 23 20 19 19 16 15 15 14 15 16 14 13 13 13 13
25 21 18 15 13 10 13 16 17 11 16 13 11 13 12 15 17 18 16 13 11 13
23 22 21 17 16 17 15 13 13 11 16 16 13 11 6 6 10 12 15 14 13 12

GFSNIL_850_spd_102.txt.gz
Wind_Speed
40 41 42 44 44 45 42 40 37 36 33 30 29 29 30 30 30 27 27 28 28 29
33 35 37 35 36 37 35 38 32 31 29 29 27 29 29 29 28 26 27 27 26 28
25 27 29 32 32 33 33 31 29 30 27 25 24 23 23 25 25 26 28 30 30 28
21 21 23 25 25 24 23 28 28 25 24 23 22 23 24 26 27 27 32 32 31 31
11 9 14 15 14 19 20 25 22 22 21 22 22 23 24 25 26 27 28 26 25 30
12 12 20 21 12 14 20 23 20 21 22 22 21 19 19 20 20 18 21 21 20 24
7 14 26 28 33 24 21 23 21 17 18 18 16 16 17 15 13 14 15 15 17 20
9 9 9 20 35 29 25 20 19 19 17 14 12 12 12 10 9 13 12 12 13 15
11 15 14 25 30 22 22 22 21 19 16 14 12 11 10 11 10 11 10 8 9 9
6 11 22 25 24 26 26 25 23 19 16 15 13 11 11 10 10 10 10 9 6 6
22 15 13 16 27 28 27 24 22 19 17 15 13 13 13 13 11 10 9 9 10 8
24 22 20 17 17 20 23 20 17 16 15 14 11 14 14 14 13 12 10 9 8 9
24 24 21 22 21 21 20 18 13 10 9 8 10 10 10 12 14 14 12 10 8 10
30 28 26 22 22 21 22 22 21 20 20 17 15 14 7 9 11 11 13 13 11 9

GFSNIL_850_spd_105.txt.gz
Wind_Speed
37 40 41 40 38 48 48 48 48 46 45 43 41 36 31 28 26 28 27 29 30 31
28 35 39 40 39 41 41 41 43 43 41 41 34 30 28 27 26 25 28 26 28 26
20 29 34 35 34 36 33 36 37 38 38 33 30 28 29 29 27 27 30 27 24 25
18 23 30 28 26 31 30 31 33 29 28 30 28 28 28 27 24 28 22 25 24 25
12 19 17 20 23 24 25 25 26 28 30 28 25 24 23 22 22 22 25 26 28 31
11 10 4 6 11 14 19 19 22 26 27 26 24 22 22 22 23 24 25 25 24 25
9 10 10 11 12 12 14 20 26 26 26 21 17 21 21 22 20 19 19 20 20 19
2 8 11 16 16 19 22 21 30 30 24 19 22 20 17 18 17 15 15 16 15 18
6 3 10 14 19 26 37 28 29 23 24 21 20 15 15 18 16 15 13 13 12 12
16 10 8 11 17 25 29 31 23 28 25 24 20 17 17 16 15 15 14 13 11 11
26 23 18 12 17 22 25 28 28 24 23 21 19 18 18 18 17 16 14 12 10 9
29 28 24 24 22 17 21 21 24 22 21 16 15 18 19 18 17 15 14 11 9 8
30 29 29 27 26 24 20 23 23 25 19 15 11 8 8 13 16 16 13 11 9 9
34 33 32 29 30 29 30 27 30 31 28 25 22 20 13 9 4 7 11 14 13 11

GFSNIL_850_spd_108.txt.gz
Wind_Speed
32 36 34 44 43 34 34 41 45 47 48 47 45 41 42 39 33 31 31 33 31 31
30 34 34 39 44 38 31 33 38 40 43 44 44 41 38 37 33 30 31 32 30 29
19 22 30 33 38 41 33 33 33 36 39 41 43 38 34 33 35 30 29 30 29 28
14 20 26 28 31 35 35 35 36 31 33 43 44 42 36 33 32 28 30 27 27 27
10 16 16 20 24 28 33 35 32 31 36 38 41 39 36 37 33 33 30 29 27 25
3 8 11 8 14 18 24 30 31 32 36 38 41 39 34 35 33 30 25 21 20 20
6 2 8 2 3 7 11 23 24 31 38 39 39 31 34 35 28 22 22 23 24 25
14 7 3 11 9 6 8 14 26 31 34 36 32 31 32 29 23 23 20 21 20 21
19 15 6 8 12 17 19 23 25 31 34 32 32 30 27 24 22 16 15 15 17 16
24 24 20 10 4 11 21 27 30 31 36 37 34 28 23 19 16 15 17 17 16 15
30 28 26 23 20 18 20 24 27 26 23 20 27 24 19 17 15 19 19 17 16 15
33 33 32 32 29 25 17 21 23 24 25 19 17 15 16 15 16 18 16 13 12 12
35 37 37 35 34 32 28 27 25 27 27 23 20 14 13 12 17 17 15 12 10 12
37 37 37 37 37 37 37 35 35 34 33 31 28 23 17 13 11 11 8 7 7 7